DW6733 Weather Reports


time (UTC)temp
F
wind
direction
speed
knots
gust
knots
rain 1hr
in
rain 24hr
in
rain mn
in
humidity
%
barometer
mb
20260903025606 77 0 0.0 0.0 0.00 0.00 0.00 90 1015.9
20260903024906 77 0 0.0 0.0 0.00 0.00 0.00 89 1016.0
20260903024206 77 0 0.0 0.0 0.00 0.00 0.00 89 1016.0
20260903023506 77 0 0.0 0.0 0.00 0.00 0.00 88 1016.1
20260903022806 78 0 0.0 0.0 0.00 0.00 0.00 89 1016.1
20260903022106 78 0 0.0 0.0 0.00 0.00 0.00 88 1016.1
20260903021406 78 0 0.0 0.0 0.00 0.00 0.00 89 1016.0
20260903020706 78 0 0.0 0.0 0.00 0.00 0.00 89 1016.0
20260903020006 78 0 0.0 0.0 0.00 0.00 0.00 88 1016.0
20260903015606 78 0 0.0 0.0 0.00 0.00 0.00 87 1016.0
20260903014906 79 0 0.0 0.0 0.00 0.00 0.00 87 1015.9
20260903014206 79 0 0.0 0.0 0.00 0.00 0.00 87 1015.9
20260903013506 79 0 0.0 0.0 0.00 0.00 0.00 86 1015.9
20260903012806 80 0 0.0 0.0 0.00 0.00 0.00 86 1015.8
20260903012127 80 0 0.0 0.0 0.00 0.00 0.00 86 1015.8
20260903011406 80 0 0.0 0.0 0.00 0.00 0.00 85 1015.7
20260903010706 81 0 0.0 0.0 0.00 0.00 0.00 84 1015.6
20260903010006 82 0 0.0 0.0 0.00 0.00 0.00 84 1015.6
20260903005606 82 0 0.0 0.0 0.00 0.00 0.00 83 1015.6
20260903004906 82 0 0.0 0.0 0.00 0.00 0.00 81 1015.5
20260903004206 83 0 0.0 0.0 0.00 0.00 0.00 81 1015.5
20260903003506 84 0 0.0 0.0 0.00 0.00 0.00 80 1015.4
20260903002806 85 0 0.0 0.0 0.00 0.00 0.00 78 1015.3
20260903002106 86 0 0.0 0.0 0.00 0.00 0.00 77 1015.3
20260903001406 86 9 0.0 0.9 0.00 0.00 0.00 76 1015.3
20260903000706 88 46 0.9 1.7 0.00 0.00 0.00 74 1015.4
20260903000006 88 182 0.9 1.7 0.00 0.00 0.00 74 1015.3
20260902235606 89 182 0.9 1.7 0.00 0.00 0.00 72 1015.3
20260902234927 90 182 0.0 1.7 0.00 0.00 0.00 70 1015.3
20260902234206 91 182 0.0 0.9 0.00 0.00 0.00 69 1015.3
20260902233506 92 182 0.9 1.7 0.00 0.00 0.00 68 1015.2
20260902232806 93 182 0.9 2.6 0.00 0.00 0.00 65 1015.3
20260902232106 93 183 0.9 2.6 0.00 0.00 0.00 65 1015.3
20260902231426 94 205 0.9 2.6 0.00 0.00 0.00 63 1015.3
20260902230727 94 227 0.9 2.6 0.00 0.00 0.00 61 1015.3
20260902230026 94 205 0.9 2.6 0.00 0.00 0.00 59 1015.3
20260902225606 95 199 0.9 1.7 0.00 0.00 0.00 61 1015.3
20260902224906 95 190 0.9 2.6 0.00 0.00 0.00 61 1015.4
20260902224205 95 197 0.9 4.3 0.00 0.00 0.00 59 1015.4
20260902223505 95 208 0.9 4.3 0.00 0.00 0.00 59 1015.3
20260902222805 95 206 1.7 2.6 0.00 0.00 0.00 58 1015.4
20260902222106 95 203 0.9 2.6 0.00 0.00 0.00 59 1015.4
20260902221405 95 219 0.9 5.2 0.00 0.00 0.00 59 1015.4
20260902220705 95 228 1.7 5.2 0.00 0.00 0.00 58 1015.5
20260902220026 94 218 1.7 8.7 0.00 0.00 0.00 59 1015.6
20260902215605 94 229 1.7 8.7 0.00 0.00 0.00 58 1015.5
20260902214905 94 241 1.7 7.0 0.00 0.00 0.00 59 1015.6
20260902214205 94 255 2.6 7.8 0.00 0.00 0.00 57 1015.6
20260902213505 95 230 2.6 8.7 0.00 0.00 0.00 55 1015.6
20260902212805 95 213 1.7 5.2 0.00 0.00 0.00 57 1015.6
20260902212105 95 215 2.6 5.2 0.00 0.00 0.00 56 1015.7
20260902211405 95 211 0.9 4.3 0.00 0.00 0.00 59 1015.7
20260902210705 94 209 1.7 3.5 0.00 0.00 0.00 58 1015.7
20260902210005 94 227 1.7 7.0 0.00 0.00 0.00 56 1015.8
20260902205605 94 242 2.6 7.0 0.00 0.00 0.00 57 1015.8
20260902204905 94 245 2.6 8.7 0.00 0.00 0.00 58 1015.8
20260902204205 94 236 2.6 7.0 0.00 0.00 0.00 57 1015.9
20260902203505 94 245 3.5 7.0 0.00 0.00 0.00 55 1016.0
20260902202805 95 227 2.6 7.0 0.00 0.00 0.00 56 1016.0
20260902202105 95 219 2.6 7.0 0.00 0.00 0.00 58 1016.0
20260902201405 95 207 3.5 7.0 0.00 0.00 0.00 52 1016.1
20260902200705 95 192 3.5 8.7 0.00 0.00 0.00 56 1016.1
20260902200005 95 186 3.5 8.7 0.00 0.00 0.00 57 1016.1
20260902195605 95 183 3.5 8.7 0.00 0.00 0.00 56 1016.2
20260902194905 94 190 3.5 8.7 0.00 0.00 0.00 56 1016.3
20260902194205 94 197 2.6 7.8 0.00 0.00 0.00 58 1016.4
20260902193505 94 195 3.5 7.8 0.00 0.00 0.00 59 1016.5
20260902192805 94 189 3.5 7.8 0.00 0.00 0.00 58 1016.6
20260902192126 93 219 2.6 7.0 0.00 0.00 0.00 64 1016.6
20260902191405 93 244 2.6 7.0 0.00 0.00 0.00 61 1016.8
20260902190705 92 255 2.6 7.8 0.00 0.00 0.00 62 1016.8
20260902190005 92 238 2.6 7.8 0.00 0.00 0.00 61 1016.9
20260902185626 93 226 3.5 9.6 0.00 0.00 0.00 59 1016.9
20260902184926 93 236 3.5 9.6 0.00 0.00 0.00 59 1016.9
20260902184205 93 246 4.3 8.7 0.00 0.00 0.00 57 1017.0
20260902183505 93 223 3.5 8.7 0.00 0.00 0.00 61 1017.0
20260902182805 93 217 3.5 8.7 0.00 0.00 0.00 59 1017.0
20260902182105 92 204 2.6 8.7 0.00 0.00 0.00 60 1017.0
20260902181405 92 207 2.6 8.7 0.00 0.00 0.00 62 1017.1
20260902180705 92 221 2.6 6.1 0.00 0.00 0.00 63 1017.3
20260902180007 92 219 3.5 7.0 0.00 0.00 0.00 63 1017.3
20260902175605 92 206 3.5 7.8 0.00 0.00 0.00 61 1017.4
20260902174905 92 203 3.5 8.7 0.00 0.00 0.00 63 1017.5
20260902174226 92 229 2.6 7.8 0.00 0.00 0.00 66 1017.6
20260902173526 92 220 3.5 7.8 0.00 0.00 0.00 65 1017.7
20260902172804 92 226 3.5 7.8 0.00 0.00 0.00 65 1017.7
20260902172105 92 224 2.6 7.8 0.00 0.00 0.00 65 1017.8
20260902171405 92 209 2.6 7.8 0.00 0.00 0.00 67 1017.9
20260902170726 91 188 3.5 7.0 0.00 0.00 0.00 69 1017.8
20260902170004 91 227 2.6 6.1 0.00 0.00 0.00 68 1017.8
20260902165626 91 232 2.6 5.2 0.00 0.00 0.00 66 1017.8
20260902164925 91 216 2.6 5.2 0.00 0.00 0.00 69 1017.9
20260902164204 91 207 2.6 6.1 0.00 0.00 0.00 66 1017.9
20260902163525 91 191 2.6 6.1 0.00 0.00 0.00 69 1017.9
20260902162804 90 240 1.7 4.3 0.00 0.00 0.00 70 1018.0
20260902162104 90 215 2.6 8.7 0.00 0.00 0.00 70 1018.0
20260902161405 90 221 2.6 8.7 0.00 0.00 0.00 72 1018.0
20260902160704 90 225 2.6 6.1 0.00 0.00 0.00 70 1018.1
20260902160007 90 201 2.6 6.1 0.00 0.00 0.00 68 1018.1
20260902155604 89 202 2.6 6.1 0.00 0.00 0.00 70 1018.1
20260902154904 89 224 2.6 7.0 0.00 0.00 0.00 68 1018.0
20260902154204 89 221 1.7 4.3 0.00 0.00 0.00 72 1018.1
20260902153504 89 207 2.6 4.3 0.00 0.00 0.00 71 1018.2
20260902152804 88 214 2.6 5.2 0.00 0.00 0.00 71 1018.2
20260902152104 88 204 2.6 5.2 0.00 0.00 0.00 69 1018.2
20260902151404 87 196 2.6 5.2 0.00 0.00 0.00 73 1018.2
20260902150704 87 224 2.6 5.2 0.00 0.00 0.00 74 1018.3
20260902150025 86 213 2.6 5.2 0.00 0.00 0.00 74 1018.3
20260902145604 86 216 2.6 6.1 0.00 0.00 0.00 76 1018.4
20260902144904 86 208 2.6 6.1 0.00 0.00 0.00 74 1018.3
20260902144204 85 219 2.6 6.1 0.00 0.00 0.00 77 1018.3
20260902143504 84 230 2.6 5.2 0.00 0.00 0.00 76 1018.3
20260902142804 84 202 1.7 5.2 0.00 0.00 0.00 80 1018.3
20260902142104 84 212 1.7 4.3 0.00 0.00 0.00 81 1018.2
20260902141404 83 219 1.7 4.3 0.00 0.00 0.00 82 1018.2
20260902140704 82 214 1.7 4.3 0.00 0.00 0.00 82 1018.2
20260902140025 81 219 1.7 3.5 0.00 0.00 0.00 83 1018.2
20260902135625 81 209 1.7 3.5 0.00 0.00 0.00 84 1018.2
20260902134904 80 235 1.7 3.5 0.00 0.00 0.00 84 1018.3
20260902134204 80 215 1.7 4.3 0.00 0.00 0.00 86 1018.3
20260902133504 79 211 1.7 4.3 0.00 0.00 0.00 87 1018.3
20260902132804 78 198 1.7 6.1 0.00 0.00 0.00 88 1018.3
20260902132104 78 191 2.6 6.1 0.00 0.00 0.00 89 1018.3
20260902131404 77 208 2.6 5.2 0.00 0.00 0.00 91 1018.3
20260902130704 76 205 2.6 7.0 0.00 0.00 0.00 92 1018.3
20260902130004 76 202 2.6 6.1 0.00 0.00 0.00 94 1018.3
20260902125625 75 196 1.7 5.2 0.00 0.00 0.00 95 1018.3
20260902124904 75 186 1.7 4.3 0.00 0.00 0.00 96 1018.3
20260902124225 74 199 0.9 3.5 0.00 0.00 0.00 96 1018.2
20260902123504 74 188 0.0 2.6 0.00 0.00 0.00 96 1018.1
20260902122804 74 196 0.0 2.6 0.00 0.00 0.00 96 1018.1
20260902122104 73 0 0.0 0.0 0.00 0.00 0.00 96 1018.1
20260902121404 72 0 0.0 0.0 0.00 0.00 0.00 96 1018.0
20260902120725 71 0 0.0 0.0 0.00 0.00 0.00 95 1018.0
20260902120004 70 0 0.0 0.0 0.00 0.00 0.00 95 1018.0
20260902115625 70 0 0.0 0.0 0.00 0.00 0.00 95 1017.9
20260902114904 69 0 0.0 0.0 0.00 0.00 0.00 94 1017.8
20260902114225 69 0 0.0 0.0 0.00 0.00 0.00 94 1017.8
20260902113504 69 0 0.0 0.0 0.00 0.00 0.00 94 1017.6
20260902112804 69 0 0.0 0.0 0.00 0.00 0.00 94 1017.6
20260902112104 69 0 0.0 0.0 0.00 0.00 0.00 94 1017.6
20260902111425 69 0 0.0 0.0 0.00 0.00 0.00 94 1017.6
20260902110704 69 0 0.0 0.0 0.00 0.00 0.00 94 1017.5
20260902110025 69 0 0.0 0.0 0.00 0.00 0.00 94 1017.5
20260902105604 69 0 0.0 0.0 0.00 0.00 0.00 94 1017.6
20260902104925 69 0 0.0 0.0 0.00 0.00 0.00 94 1017.5
20260902104225 69 0 0.0 0.0 0.00 0.00 0.00 94 1017.5
20260902103504 70 0 0.0 0.0 0.00 0.00 0.00 94 1017.5
20260902102803 70 0 0.0 0.0 0.00 0.00 0.00 94 1017.5
20260902102125 70 0 0.0 0.0 0.00 0.00 0.00 94 1017.5
20260902101404 70 0 0.0 0.0 0.00 0.00 0.00 94 1017.6
20260902100703 70 0 0.0 0.0 0.00 0.00 0.00 93 1017.5
20260902100003 70 0 0.0 0.0 0.00 0.00 0.00 93 1017.5
20260902095603 70 0 0.0 0.0 0.00 0.00 0.00 93 1017.5
20260902094904 70 0 0.0 0.0 0.00 0.00 0.00 93 1017.5
20260902094203 70 0 0.0 0.0 0.00 0.00 0.00 93 1017.4
20260902093524 70 0 0.0 0.0 0.00 0.00 0.00 93 1017.4
20260902092824 70 0 0.0 0.0 0.00 0.00 0.00 93 1017.4
20260902092103 70 0 0.0 0.0 0.00 0.00 0.00 93 1017.3
20260902091424 70 0 0.0 0.0 0.00 0.00 0.00 93 1017.3
20260902090703 70 0 0.0 0.0 0.00 0.00 0.00 93 1017.2
20260902090024 70 0 0.0 0.0 0.00 0.00 0.00 93 1017.2
20260902085603 70 0 0.0 0.0 0.00 0.00 0.00 93 1017.2
20260902084924 70 0 0.0 0.0 0.00 0.00 0.00 93 1017.1
20260902084203 71 0 0.0 0.0 0.00 0.00 0.00 93 1017.0
20260902083503 71 0 0.0 0.0 0.00 0.00 0.00 93 1016.9
20260902082803 71 0 0.0 0.0 0.00 0.00 0.00 93 1016.9
20260902082124 71 0 0.0 0.0 0.00 0.00 0.00 93 1016.8
20260902081403 71 0 0.0 0.0 0.00 0.00 0.00 93 1016.8
20260902080703 71 0 0.0 0.0 0.00 0.00 0.00 93 1016.7
20260902080003 71 0 0.0 0.0 0.00 0.00 0.00 94 1016.7
20260902075603 71 0 0.0 0.0 0.00 0.00 0.00 93 1016.7
20260902074903 72 0 0.0 0.0 0.00 0.00 0.00 93 1016.6
20260902074224 72 0 0.0 0.0 0.00 0.00 0.00 93 1016.7
20260902073503 72 0 0.0 0.0 0.00 0.00 0.00 94 1016.7
20260902072803 72 0 0.0 0.0 0.00 0.00 0.00 93 1016.6
20260902072103 72 0 0.0 0.0 0.00 0.00 0.00 93 1016.6
20260902071424 72 0 0.0 0.0 0.00 0.00 0.00 93 1016.6
20260902070724 72 0 0.0 0.0 0.00 0.00 0.00 93 1016.7
20260902070003 72 0 0.0 0.0 0.00 0.00 0.00 93 1016.8
20260902065603 72 0 0.0 0.0 0.00 0.00 0.00 93 1016.7
20260902064924 72 0 0.0 0.0 0.00 0.00 0.00 92 1016.7
20260902064207 72 0 0.0 0.0 0.00 0.00 0.00 91 1016.7
20260902063507 72 0 0.0 0.0 0.00 0.00 0.00 91 1016.7
20260902062828 72 0 0.0 0.0 0.00 0.00 0.00 91 1016.7
20260902062106 72 0 0.0 0.0 0.00 0.00 0.00 91 1016.8
20260902061428 72 0 0.0 0.0 0.00 0.00 0.00 92 1016.8
20260902060707 72 0 0.0 0.0 0.00 0.00 0.00 91 1016.8
20260902060007 72 0 0.0 0.0 0.00 0.00 0.00 91 1016.8
20260902055607 73 0 0.0 0.0 0.00 0.00 0.00 91 1016.8
20260902054906 73 0 0.0 0.0 0.00 0.00 0.00 91 1016.9
20260902054207 73 0 0.0 0.0 0.00 0.00 0.00 92 1016.9
20260902053507 73 0 0.0 0.0 0.00 0.00 0.00 91 1016.8
20260902052807 73 0 0.0 0.0 0.00 0.00 0.00 90 1016.8
20260902052107 73 0 0.0 0.0 0.00 0.00 0.00 90 1016.7
20260902051406 73 0 0.0 0.0 0.00 0.00 0.00 90 1016.7
20260902050727 74 0 0.0 0.0 0.00 0.00 0.00 90 1016.7
20260902050008 74 0 0.0 0.0 0.00 0.00 0.00 90 1016.8
20260902045607 74 0 0.0 0.0 0.00 0.00 0.00 90 1016.7
20260902044907 74 0 0.0 0.0 0.00 0.00 0.00 91 1016.7
20260902044206 74 0 0.0 0.0 0.00 0.00 0.00 90 1016.8
20260902043506 74 0 0.0 0.0 0.00 0.00 0.00 90 1016.8
20260902042806 74 0 0.0 0.0 0.00 0.00 0.00 90 1016.8
20260902042106 75 0 0.0 0.0 0.00 0.00 0.00 90 1016.9
20260902041406 75 0 0.0 0.0 0.00 0.00 0.00 90 1016.9
20260902040706 75 0 0.0 0.0 0.00 0.00 0.00 90 1016.8
20260902040007 75 0 0.0 0.0 0.00 0.00 0.00 90 1016.9
20260902035606 75 0 0.0 0.0 0.00 0.00 0.00 90 1016.8
20260902034906 75 0 0.0 0.0 0.00 0.00 0.00 89 1016.8
20260902034207 76 0 0.0 0.0 0.00 0.00 0.00 90 1016.8
20260902033527 76 0 0.0 0.0 0.00 0.00 0.00 89 1016.7
20260902032806 76 0 0.0 0.0 0.00 0.00 0.00 89 1016.7
20260902032127 76 0 0.0 0.0 0.00 0.00 0.00 89 1016.7
20260902031406 76 0 0.0 0.0 0.00 0.00 0.00 89 1016.8
20260902030706 76 0 0.0 0.0 0.00 0.00 0.00 89 1016.7
20260902030006 76 0 0.0 0.0 0.00 0.00 0.00 89 1016.8